[[{"header":{"parameterUnit":"m.s-1","parameterCategory":1,"la1":30.2991,"la2":30.254,"lo1":-89.0895,"lo2":-89.0444,"dy":0.0017,"dx":0.0017,"nx":28,"ny":28,"refTime":"2024-08-19T21:00:00:Z","depth":0,"parameterNumber":2,"parameterNumberName":"U-component_of_WINDS"},"data":[0,0,0,0,0,0,0,0,0,0,0,0,0,0,0,0,0,0,0,0,0,0,0,0,0,0,0,0,0,0,0,0,0,0,0,0,0,0,0,0,0,0,0,0,0,0,0,0,0,0,0,0,0,0,0,0,0,0,-0.8976,-0.8975,0,-0.8892,-0.8891,-0.889,-0.8769,-0.8766,-0.8764,-0.8762,-0.868,-0.8679,-0.8679,0,0,0,0,0,0,0,0,0,0,0,0,0,-0.9033,-0.9033,-0.8976,-0.8975,-0.8974,-0.8892,-0.8891,-0.889,-0.8769,-0.8766,-0.8764,-0.8761,-0.868,-0.8679,-0.8679,0,0,0,0,0,0,0,0,0,0,0,0,0,-0.8985,-0.9033,-0.8976,-0.8904,-0.8896,-0.8893,-0.8891,-0.889,-0.8769,-0.8766,-0.8763,-0.876,-0.868,-0.868,-0.8679,-0.8741,0,0,-0.8678,-0.8678,0,0,0,0,0,0,0,0,-0.8988,-0.8983,-0.8915,-0.8909,-0.89,-0.8837,-0.8881,-0.884,-0.877,-0.8818,-0.8762,-0.8759,-0.8735,-0.873,-0.8721,-0.8737,-0.8733,-0.8678,-0.8678,-0.8678,-0.8678,0,0,0,0,0,0,0,-0.8991,-0.8986,-0.8943,-0.8915,-0.8906,-0.8876,-0.8865,-0.8873,-0.8795,-0.8813,-0.8804,-0.8796,-0.873,-0.8722,-0.8718,-0.8732,-0.8678,-0.8678,-0.8678,-0.8678,-0.8792,-0.8795,0,0,0,0,0,0,-0.9005,-0.899,-0.8946,-0.8941,-0.8937,-0.8877,-0.8866,-0.8861,-0.8795,-0.8782,-0.8799,-0.8791,-0.8724,-0.8719,-0.8715,-0.8781,-0.8678,-0.8677,-0.8677,-0.8789,-0.8793,-0.8796,0,0,0,0,0,0,-0.9007,-0.9002,-0.8949,-0.8962,-0.8953,-0.888,-0.8875,-0.8861,-0.8852,-0.8784,-0.877,-0.8804,-0.8721,-0.8716,-0.8735,-0.8777,-0.8677,-0.8677,-0.8785,-0.879,-0.8795,-0.8916,0,0,0,0,0,0,-0.9009,-0.9004,-0.9026,-0.8964,-0.8953,-0.897,-0.8878,-0.8862,-0.8852,-0.884,-0.8785,-0.8773,-0.8718,-0.8736,-0.8734,-0.8775,-0.8677,-0.8781,-0.8787,-0.8793,-0.8908,-0.8925,-0.8939,0,0,0,0,0,-0.9011,-0.9065,-0.9028,-0.9023,-0.898,-0.8973,-0.8967,-0.8902,-0.8856,-0.8878,-0.8833,-0.8775,-0.8773,-0.8739,-0.8736,-0.8777,-0.8778,-0.8786,-0.8793,-0.8901,-0.8921,-0.8938,0,0,0,0,0,0,-0.9136,-0.9055,-0.9014,-0.9048,-0.9018,-0.8952,-0.8978,-0.8926,-0.8909,-0.8899,-0.882,-0.8808,-0.8837,-0.8809,-0.8773,-0.8832,-0.8766,-0.8774,-0.885,-0.8868,-0.8883,-0.889,-0.8677,0,0,0,0,0,-0.9167,-0.9167,-0.9097,-0.9135,-0.9122,-0.9053,-0.9047,-0.9,-0.8966,-0.8953,-0.891,-0.888,-0.8871,-0.8868,-0.8858,-0.8903,-0.8889,-0.893,-0.8945,-0.8958,-0.8965,-0.8986,-0.9003,-0.882,-0.882,-0.882,0,0,-0.9232,-0.9188,-0.9193,-0.9159,-0.9129,-0.9132,-0.9043,-0.905,-0.9051,-0.8954,-0.8969,-0.8936,-0.8897,-0.893,-0.8942,-0.8907,-0.9012,-0.8967,-0.8978,-0.8978,-0.8995,-0.9012,-0.9028,-0.8825,-0.8824,-0.8824,0,0,-0.9351,-0.9318,-0.9345,-0.9317,-0.9274,-0.9227,-0.9234,-0.9175,-0.9149,-0.9163,-0.909,-0.909,-0.9079,-0.9053,-0.9039,-0.9147,-0.9092,-0.9146,-0.9226,-0.9247,-0.9261,-0.9274,-0.9311,-0.9326,-0.9153,-0.9153,-0.9154,0,-0.9437,-0.9437,-0.9366,-0.9376,-0.9363,-0.9274,-0.93,-0.9277,-0.9233,-0.9226,-0.9187,-0.9169,-0.9137,-0.9162,-0.9188,-0.9179,-0.9184,-0.9152,-0.9265,-0.9276,-0.9287,-0.9322,-0.9336,-0.916,-0.9159,-0.9159,-0.9158,0,-0.9545,-0.9546,-0.9573,-0.9531,-0.9521,-0.954,-0.9471,-0.9469,-0.9422,-0.938,-0.9394,-0.9351,-0.933,-0.9332,-0.9287,-0.935,-0.9329,-0.9279,-0.9211,-0.9312,-0.9344,-0.9357,-0.917,-0.9167,-0.9165,-0.9164,0,0,-0.9741,-0.9658,-0.9669,-0.9648,-0.9593,-0.9592,-0.9607,-0.9584,-0.9583,-0.9556,-0.9566,-0.9557,-0.951,-0.9494,-0.9445,-0.9463,-0.955,-0.941,-0.9408,-0.9437,-0.9615,-0.9653,-0.9669,-0.9513,-0.9515,-0.9517,-0.9618,0,-0.9849,-0.9868,-0.9803,-0.9839,-0.9838,-0.9753,-0.9765,-0.9733,-0.9694,-0.9688,-0.9644,-0.9639,-0.9577,-0.9567,-0.9581,-0.9537,-0.9585,-0.9528,-0.9521,-0.9522,-0.9533,-0.9686,-0.9726,-0.9823,-0.963,-0.9632,-0.9633,0,-0.9977,-0.9955,-0.999,-0.9931,-0.9929,-0.9941,-0.9914,-0.991,-0.9871,-0.9841,-0.9822,-0.9765,-0.9775,-0.971,-0.9722,-0.9685,-0.9678,-0.9656,-0.9658,-0.9655,-0.9584,-0.9686,-0.9852,-0.9867,-0.9652,-0.9651,-0.9649,0,-1.0115,-1.0094,-1.0111,-1.0097,-1.0029,-1.0039,-1.0012,-0.9969,-0.996,-0.9936,-0.9929,-0.9908,-0.9897,-0.9882,-0.982,-0.9779,-0.9839,-0.977,-0.9814,-0.9816,-0.9831,-0.9831,-0.9998,-0.9828,-0.9828,-0.9828,-0.9827,0,-1.0242,-1.0267,-1.0172,-1.0184,-1.0208,-1.0134,-1.0161,-1.0125,-1.0088,-1.009,-1.0016,-1.002,-0.9938,-0.9934,-0.9886,-0.9902,-0.9898,-0.9874,-0.9861,-0.988,-0.9883,-0.9874,-0.9866,-0.9831,-0.9831,-0.983,-0.9829,0,-1.04,-1.0338,-1.0352,-1.0286,-1.027,-1.0291,-1.0235,-1.0242,-1.0198,-1.0202,-1.0198,-1.0129,-1.0119,-1.0056,-1.0032,-1.0,-1.0034,-1.0008,-1.0047,-1.0038,-1.0086,-1.0082,-1.0253,-1.0271,-1.0091,-1.0093,-1.0094,0,-1.0485,-1.0502,-1.0437,-1.0433,-1.0408,-1.0403,-1.0391,-1.0319,-1.031,-1.0266,-1.0279,-1.0263,-1.0246,-1.0234,-1.0182,-1.0163,-1.0135,-1.0197,-1.0132,-1.0151,-1.0135,-1.0134,-1.0135,-1.021,-1.0213,-1.0215,-1.0216,0,-1.0641,-1.0609,-1.0596,-1.0571,-1.056,-1.0537,-1.051,-1.0511,-1.043,-1.0425,-1.0413,-1.04,-1.0374,-1.0359,-1.0331,-1.0302,-1.0246,-1.0237,-1.0246,-1.0266,-1.0287,-1.0275,-1.0083,-1.0233,-1.0232,-1.023,-1.0229,-1.0229,-1.0764,-1.0774,-1.073,-1.0717,-1.0689,-1.0665,-1.0668,-1.0623,-1.0612,-1.0585,-1.0543,-1.0537,-1.0496,-1.0452,-1.0428,-1.0423,-1.039,-1.0404,-1.0407,-1.0411,-1.0421,-1.0289,-1.0417,-1.0417,-1.0416,-1.0416,-1.0415,0,-1.0915,-1.0882,-1.0871,-1.0835,-1.0825,-1.0771,-1.0738,-1.0734,-1.0729,-1.0696,-1.068,-1.0666,-1.065,-1.0596,-1.0575,-1.0581,-1.0554,-1.0577,-1.0576,-1.057,-1.0452,-1.0446,-1.0599,-1.0599,-1.0599,-1.0599,-1.0599,-1.0599,-1.0993,-1.1007,-1.097,-1.0969,-1.0935,-1.0928,-1.0914,-1.0891,-1.0864,-1.0851,-1.0838,-1.0802,-1.076,-1.0735,-1.0718,-1.0702,-1.0698,-1.073,-1.0706,-1.0596,-1.0579,-1.0562,-1.0555,-1.0729,-1.073,-1.0824,-1.0824,-1.0825]},{"header":{"parameterUnit":"m.s-1","parameterCategory":1,"la1":30.2991,"la2":30.254,"lo1":-89.0895,"lo2":-89.0444,"dy":0.0017,"dx":0.0017,"nx":28,"ny":28,"refTime":"2024-08-19T21:00:00:Z","depth":0,"parameterNumber":3,"parameterNumberName":"V-component_of_WINDS"},"data":[0,0,0,0,0,0,0,0,0,0,0,0,0,0,0,0,0,0,0,0,0,0,0,0,0,0,0,0,0,0,0,0,0,0,0,0,0,0,0,0,0,0,0,0,0,0,0,0,0,0,0,0,0,0,0,0,0,0,-2.4468,-2.4469,0,-2.453,-2.4531,-2.4531,-2.4517,-2.4516,-2.4515,-2.4513,-2.4576,-2.4579,-2.4582,0,0,0,0,0,0,0,0,0,0,0,0,0,-2.4336,-2.4339,-2.4468,-2.4469,-2.4469,-2.453,-2.4531,-2.4531,-2.4517,-2.4516,-2.4514,-2.4513,-2.4575,-2.4579,-2.4582,0,0,0,0,0,0,0,0,0,0,0,0,0,-2.4395,-2.4339,-2.4468,-2.447,-2.447,-2.453,-2.4531,-2.4532,-2.4517,-2.4516,-2.4514,-2.4512,-2.4574,-2.4578,-2.4582,-2.4644,0,0,-2.4595,-2.4597,0,0,0,0,0,0,0,0,-2.4392,-2.44,-2.4469,-2.447,-2.4471,-2.4514,-2.4507,-2.4569,-2.4518,-2.45,-2.4513,-2.4511,-2.4557,-2.4562,-2.4578,-2.4647,-2.4649,-2.4596,-2.4598,-2.46,-2.4601,0,0,0,0,0,0,0,-2.4388,-2.4397,-2.4492,-2.447,-2.4471,-2.4467,-2.4473,-2.4519,-2.4537,-2.4501,-2.45,-2.4508,-2.4557,-2.4574,-2.4579,-2.465,-2.4595,-2.4599,-2.4602,-2.4603,-2.477,-2.4772,0,0,0,0,0,0,-2.4383,-2.4394,-2.449,-2.4494,-2.4426,-2.4471,-2.4478,-2.4502,-2.4537,-2.4541,-2.4509,-2.4507,-2.4568,-2.4574,-2.4581,-2.4654,-2.46,-2.4604,-2.4606,-2.4769,-2.4771,-2.4773,0,0,0,0,0,0,-2.438,-2.4392,-2.4488,-2.4444,-2.4456,-2.4475,-2.4502,-2.4504,-2.4521,-2.4543,-2.4546,-2.4523,-2.4567,-2.4576,-2.4628,-2.4656,-2.4606,-2.4609,-2.4766,-2.4769,-2.4772,-2.4801,0,0,0,0,0,0,-2.4377,-2.4391,-2.4415,-2.4445,-2.4458,-2.4534,-2.4503,-2.4506,-2.4528,-2.4525,-2.4557,-2.456,-2.4566,-2.4622,-2.4632,-2.4661,-2.4613,-2.4764,-2.4768,-2.4771,-2.4797,-2.4804,-2.481,0,0,0,0,0,-2.4372,-2.442,-2.4416,-2.4428,-2.4488,-2.4535,-2.4543,-2.4549,-2.453,-2.4554,-2.4568,-2.4559,-2.4652,-2.4627,-2.4639,-2.4669,-2.4762,-2.4767,-2.4771,-2.4794,-2.4803,-2.481,0,0,0,0,0,0,-2.4393,-2.4424,-2.442,-2.4479,-2.4505,-2.4533,-2.4563,-2.4558,-2.4589,-2.4585,-2.4591,-2.4598,-2.4651,-2.4666,-2.4638,-2.4729,-2.4704,-2.4711,-2.4718,-2.4726,-2.4733,-2.4727,-2.4616,0,0,0,0,0,-2.4405,-2.4441,-2.4466,-2.4516,-2.4529,-2.4544,-2.4565,-2.4567,-2.4593,-2.4604,-2.4622,-2.4648,-2.4683,-2.4705,-2.4739,-2.4799,-2.4805,-2.4826,-2.4832,-2.4838,-2.4843,-2.4875,-2.4884,-2.4787,-2.4787,-2.4787,0,0,-2.4429,-2.4451,-2.4473,-2.4521,-2.4541,-2.4577,-2.4553,-2.4593,-2.462,-2.461,-2.466,-2.4674,-2.4704,-2.476,-2.4786,-2.4774,-2.4871,-2.4843,-2.4847,-2.485,-2.488,-2.489,-2.4898,-2.479,-2.479,-2.4789,0,0,-2.4492,-2.4513,-2.4556,-2.4576,-2.4607,-2.4616,-2.4627,-2.4656,-2.4664,-2.4715,-2.4708,-2.474,-2.48,-2.4821,-2.4839,-2.4909,-2.4902,-2.492,-2.4953,-2.4984,-2.4992,-2.4998,-2.5022,-2.5031,-2.4925,-2.4926,-2.4926,0,-2.4519,-2.4574,-2.4579,-2.4619,-2.464,-2.4633,-2.4676,-2.4696,-2.4736,-2.475,-2.4736,-2.481,-2.483,-2.489,-2.4907,-2.4923,-2.4934,-2.4916,-2.499,-2.4997,-2.5003,-2.5026,-2.5035,-2.4927,-2.4927,-2.4927,-2.4927,0,-2.4604,-2.4642,-2.4674,-2.4712,-2.4736,-2.4778,-2.4789,-2.4813,-2.4813,-2.4824,-2.4875,-2.4897,-2.4935,-2.4949,-2.495,-2.501,-2.5001,-2.4989,-2.4963,-2.5014,-2.5036,-2.5045,-2.493,-2.493,-2.4929,-2.4928,0,0,-2.4682,-2.4722,-2.4734,-2.475,-2.4783,-2.4812,-2.4853,-2.489,-2.491,-2.4937,-2.4971,-2.5022,-2.501,-2.5031,-2.5034,-2.5061,-2.5114,-2.5045,-2.5046,-2.5056,-2.518,-2.5188,-2.5198,-2.5109,-2.5111,-2.5112,-2.5177,0,-2.4747,-2.4819,-2.4825,-2.489,-2.4924,-2.4918,-2.4953,-2.4977,-2.4988,-2.5019,-2.5031,-2.5066,-2.5049,-2.5061,-2.5088,-2.5101,-2.5138,-2.5097,-2.514,-2.5141,-2.5132,-2.5209,-2.5218,-2.5278,-2.5185,-2.5187,-2.5188,0,-2.4832,-2.4862,-2.493,-2.4957,-2.4972,-2.5004,-2.5037,-2.5067,-2.5093,-2.5099,-2.5122,-2.5121,-2.5162,-2.5136,-2.5192,-2.5164,-2.5182,-2.5191,-2.5194,-2.5197,-2.5167,-2.5213,-2.5297,-2.5306,-2.5201,-2.52,-2.5199,0,-2.4881,-2.4938,-2.4986,-2.5,-2.5033,-2.5056,-2.507,-2.5095,-2.5116,-2.5145,-2.5158,-2.5192,-2.521,-2.5236,-2.5244,-2.5224,-2.53,-2.5274,-2.5305,-2.5305,-2.532,-2.5319,-2.5407,-2.5334,-2.5334,-2.5334,-2.5333,0,-2.4952,-2.4994,-2.5008,-2.5037,-2.5083,-2.5089,-2.5135,-2.5148,-2.517,-2.5201,-2.5198,-2.5227,-2.5236,-2.5267,-2.5273,-2.5318,-2.5327,-2.5332,-2.5333,-2.5332,-2.5331,-2.5343,-2.5339,-2.5336,-2.5336,-2.5335,-2.5335,0,-2.5013,-2.5025,-2.5076,-2.5103,-2.511,-2.5143,-2.5166,-2.5194,-2.5204,-2.5244,-2.5253,-2.5269,-2.5306,-2.5316,-2.5359,-2.5363,-2.5416,-2.5414,-2.5407,-2.5407,-2.5437,-2.5433,-2.5534,-2.5547,-2.5467,-2.5468,-2.5468,0,-2.5057,-2.5089,-2.5119,-2.514,-2.5155,-2.5189,-2.521,-2.5217,-2.5239,-2.5271,-2.5295,-2.5331,-2.5359,-2.5417,-2.5433,-2.5466,-2.5463,-2.5497,-2.5468,-2.5466,-2.5462,-2.546,-2.5463,-2.5502,-2.5502,-2.5503,-2.5504,0,-2.5134,-2.5138,-2.5169,-2.5201,-2.5227,-2.5253,-2.5278,-2.5295,-2.5306,-2.5331,-2.5367,-2.539,-2.5434,-2.5469,-2.5502,-2.5517,-2.5512,-2.5513,-2.5521,-2.552,-2.5514,-2.5516,-2.542,-2.551,-2.5509,-2.5509,-2.5509,-2.5508,-2.5187,-2.5215,-2.524,-2.5274,-2.5294,-2.5317,-2.5344,-2.5357,-2.5388,-2.5424,-2.5427,-2.5466,-2.5491,-2.5535,-2.5551,-2.5582,-2.5572,-2.5585,-2.5588,-2.5591,-2.5593,-2.551,-2.5588,-2.5588,-2.5588,-2.5588,-2.5588,0,-2.5263,-2.5278,-2.531,-2.5345,-2.5371,-2.5365,-2.5392,-2.5414,-2.5449,-2.5473,-2.5501,-2.5542,-2.5576,-2.5594,-2.5627,-2.5648,-2.5647,-2.5657,-2.5655,-2.5658,-2.56,-2.5589,-2.5657,-2.5657,-2.5657,-2.5657,-2.5657,-2.5657,-2.5305,-2.5351,-2.5357,-2.5412,-2.5427,-2.5466,-2.5482,-2.5503,-2.5522,-2.5568,-2.5596,-2.5607,-2.5628,-2.5663,-2.5694,-2.5698,-2.571,-2.5721,-2.5724,-2.5669,-2.5662,-2.5655,-2.5645,-2.5724,-2.5724,-2.5779,-2.5779,-2.578]}]]